Location: Buckenweiler
(49.0667°N, 10.2500°E)
Time: 08:32:46
(UTC+00:00)

Cosmos 1763 Rocket - Pass Details

Date: 18 January 2026
Orbit: 729 x 773 km, 74.0° (Epoch: 16 February)

Event Time Altitude Azimuth Distance (km) Brightness Sun altitude
Exits shadow 06:10:50 - 322° (NW) 2,487 5.6 -8.9°
Reaches altitude 10° 06:11:33 10° 318° (NW) 2,239 5.4 -8.8°
Maximum altitude 06:15:54 29° 259° (W) 1,316 4.3 -8.1°
Drops below altitude 10° 06:20:14 10° 200° (SSW) 2,239 6.0 -7.5°
Sets 06:22:49 0° 189° (S) 3,164 6.9 -7.1°
